GFSGBSN_850_thetae_273.txt.gz
Theta_e
320 320 320 320 319 319 318 318 317 316 316 315 314 315 315 316 317 317 317 318 318 318 318 316 315 316 318 320 320 321 327 332 334 332 333 336 335 334 340 345 344 345 344 343 345 344 345
318 319 319 319 319 319 319 318 318 318 317 317 316 315 315 315 316 317 318 318 318 318 318 318 316 315 317 319 319 320 325 327 330 333 336 333 332 333 342 345 345 345 344 343 344 344 342
318 317 317 317 318 318 318 318 318 318 318 318 317 317 316 315 316 317 317 318 318 319 319 318 317 316 316 318 320 319 326 326 330 329 329 330 329 331 343 344 344 344 344 343 344 344 342
321 321 321 320 319 318 318 318 317 318 317 317 318 318 317 316 316 317 317 318 319 319 319 319 317 316 316 318 319 319 324 326 328 325 326 326 329 340 343 344 343 345 342 345 343 344 341
322 322 321 321 321 321 320 319 318 318 317 317 317 318 318 318 316 316 317 318 319 319 319 318 317 316 317 319 319 320 322 324 326 324 324 327 330 342 342 344 343 343 343 346 344 344 343
321 322 322 321 321 322 321 321 321 320 319 318 318 318 317 318 317 316 317 319 319 321 320 318 317 316 316 320 321 321 322 325 323 323 328 331 333 340 343 343 341 340 341 344 346 344 345
321 321 321 321 322 322 322 322 321 321 321 320 319 318 318 318 318 316 318 319 319 322 321 319 316 316 317 320 321 322 323 323 323 323 329 330 336 338 337 341 340 339 341 345 345 344 345
320 320 320 321 321 322 322 322 322 321 321 321 321 319 319 318 318 316 319 320 322 321 323 323 322 322 322 321 321 323 322 323 323 324 327 333 338 336 331 334 335 339 343 345 345 344 345
313 315 316 317 320 321 322 322 322 322 322 322 321 320 319 318 317 317 321 322 321 321 322 322 322 322 322 322 322 322 322 322 323 324 325 336 339 331 333 338 340 343 344 344 345 347 348
310 311 311 313 316 319 321 321 322 322 322 322 322 321 320 318 319 317 324 319 321 323 322 321 320 321 321 322 322 322 321 322 323 323 326 331 331 332 334 337 339 341 341 342 347 347 346
311 311 310 311 312 317 319 320 322 322 322 322 322 322 321 319 319 317 320 318 324 320 320 319 321 321 322 322 319 322 321 321 324 324 327 331 332 334 337 337 340 342 341 344 345 345 346
317 312 311 311 311 313 317 320 321 322 322 322 322 322 321 320 318 317 317 323 322 322 319 323 322 323 323 322 320 319 320 321 321 326 327 330 327 331 337 334 339 338 340 339 339 342 345
323 315 312 311 311 311 316 320 321 322 322 322 322 322 321 319 319 318 322 323 324 322 320 326 324 323 323 323 322 320 322 322 324 325 328 324 327 325 328 330 338 338 340 344 345 345 344
322 322 316 313 311 311 315 320 321 322 321 322 322 321 319 319 319 317 322 324 324 320 324 324 324 321 323 321 322 320 321 322 318 323 326 330 331 326 328 330 333 338 338 342 347 344 343
321 322 322 319 313 311 315 321 320 322 321 322 322 319 322 322 320 318 323 327 324 321 324 324 325 323 322 320 320 320 321 322 322 321 325 326 330 325 328 331 332 335 339 336 340 338 343
320 322 322 322 317 312 315 320 321 322 320 322 320 321 325 323 319 319 325 323 324 321 324 323 325 324 324 324 321 320 321 321 321 320 322 324 327 326 327 331 333 334 335 339 340 345 345
320 322 321 322 321 314 314 320 321 322 321 322 320 325 321 320 318 323 324 325 323 322 323 323 324 323 324 326 321 320 321 321 319 319 320 322 323 324 323 328 332 335 336 337 338 339 340
321 322 321 322 321 315 314 321 321 322 321 321 320 329 319 321 323 317 325 322 321 323 323 325 324 324 324 325 325 320 321 321 319 319 320 322 323 325 325 322 321 333 334 336 333 338 338
320 322 321 321 322 314 313 321 322 322 320 321 320 323 319 320 322 321 320 322 322 326 327 325 325 324 324 326 328 323 322 321 317 320 322 320 323 324 323 322 322 325 331 335 335 337 343
320 319 320 321 322 316 313 321 322 322 320 321 319 333 325 320 320 323 327 328 329 328 327 327 329 324 325 325 324 328 327 326 317 320 319 321 321 324 324 327 327 329 331 333 334 338 338
318 318 318 320 320 319 313 321 321 322 321 321 319 330 328 329 327 327 327 328 330 332 330 329 329 326 327 333 324 325 326 328 328 328 320 323 324 324 324 324 325 326 329 332 334 334 335
316 318 318 318 319 320 313 321 321 322 322 321 320 322 321 326 325 328 326 331 331 331 332 333 331 333 330 334 325 331 331 331 334 326 321 319 326 322 324 321 323 326 328 330 331 331 334
315 317 317 318 319 320 313 319 321 322 322 321 320 319 320 322 327 330 330 330 330 329 329 331 333 332 333 328 331 332 332 331 330 330 330 325 325 326 326 324 325 327 328 329 330 332 333
314 316 318 319 319 320 317 317 320 322 322 320 321 320 321 325 325 329 330 327 328 328 328 329 328 331 331 330 330 328 328 329 328 330 327 329 331 329 330 329 329 329 325 328 329 330 332
314 316 318 320 321 321 320 315 320 321 322 322 320 320 321 325 322 323 324 324 324 324 325 327 329 330 328 330 332 334 334 334 334 328 326 325 331 331 335 333 329 329 336 336 336 334 334
313 315 317 320 320 320 319 314 321 321 321 322 320 320 320 322 323 321 322 323 325 327 327 326 326 325 330 330 334 337 334 334 337 336 332 329 328 335 329 334 332 333 337 337 337 334 336
313 316 318 319 320 320 318 315 320 319 320 320 320 319 320 321 322 321 322 322 322 325 327 324 324 329 328 334 335 336 336 335 338 339 340 339 340 336 332 334 332 328 337 336 339 335 337
316 317 318 319 320 320 318 317 315 318 319 319 319 319 319 320 322 322 322 322 322 322 325 323 327 328 331 337 335 336 337 339 341 340 341 339 340 341 338 337 337 336 336 340 340 338 337
315 317 318 319 319 320 319 317 318 316 317 318 318 319 318 318 320 322 322 322 322 322 323 323 326 327 327 333 334 337 342 338 340 338 337 340 338 339 340 340 338 337 337 336 335 337 337

GFSGBSN_850_thetae_276.txt.gz
Theta_e
319 319 319 319 319 319 318 318 318 318 318 317 316 316 315 316 316 318 318 319 319 319 318 317 316 315 316 323 323 324 330 329 336 336 330 334 338 338 343 346 347 348 347 345 346 345 348
318 318 318 318 318 318 318 318 318 318 318 318 318 317 317 316 316 316 317 318 319 319 319 318 317 316 318 323 321 322 327 332 335 333 334 337 336 335 342 345 347 347 346 345 345 346 348
321 321 321 320 319 318 318 318 318 318 318 318 318 318 318 317 316 316 317 318 319 319 319 319 318 316 319 321 320 320 325 325 325 332 333 331 332 334 340 345 346 346 348 346 346 346 346
321 321 321 321 321 321 320 319 318 318 318 318 318 318 318 318 317 316 317 318 318 319 319 319 318 316 320 318 319 320 324 327 331 326 326 327 330 340 343 345 345 346 345 347 346 345 344
321 322 322 322 322 322 321 321 321 320 319 319 318 318 318 318 318 317 317 318 319 319 319 319 318 318 321 318 319 322 323 326 328 326 325 327 333 340 344 345 345 344 345 346 347 345 345
321 320 321 321 322 322 322 322 322 321 321 320 320 319 318 318 318 317 317 318 319 320 321 319 318 320 319 322 321 322 322 325 328 327 329 332 336 340 342 343 344 343 344 345 347 347 346
320 319 319 319 321 322 322 322 322 322 321 321 320 320 319 318 318 316 317 319 322 323 323 324 320 319 319 321 322 322 323 326 327 328 334 337 340 339 338 339 340 341 344 345 346 346 347
312 313 314 315 317 319 322 322 322 322 322 322 321 321 320 319 318 316 318 323 322 322 325 325 324 323 321 321 323 323 323 327 328 330 332 337 342 338 337 338 339 341 343 345 345 346 347
311 311 311 311 313 316 320 320 321 322 322 322 322 321 320 319 318 317 320 322 321 322 326 326 324 324 324 322 323 324 323 327 328 329 330 337 340 339 337 338 340 341 343 344 345 347 348
315 311 310 311 311 311 316 318 319 322 322 322 322 322 321 319 320 318 323 321 321 324 328 325 323 324 323 323 324 323 323 325 328 329 330 333 337 339 338 337 339 341 342 343 344 348 349
323 319 312 311 311 311 312 315 318 320 322 322 322 322 321 320 319 320 321 321 323 321 326 324 324 323 323 323 323 324 323 324 327 327 329 331 334 339 338 338 338 340 343 344 345 346 345
322 323 319 313 311 311 311 313 317 319 321 322 322 322 322 321 319 318 317 321 322 326 324 326 325 326 324 324 323 323 323 322 324 326 326 328 332 336 338 338 337 339 343 343 344 344 347
320 322 323 317 313 312 311 312 317 319 321 322 322 322 322 320 323 318 321 322 327 326 324 327 327 327 326 324 324 324 325 325 325 326 328 326 330 333 336 338 338 338 341 344 347 347 346
320 320 322 322 318 315 312 311 316 319 322 321 322 322 320 319 319 318 321 327 327 323 328 327 327 327 327 325 324 324 325 325 325 326 328 328 328 332 332 335 337 337 339 342 348 346 346
319 319 321 322 322 320 315 312 317 320 322 321 322 320 321 323 320 317 325 328 325 323 328 326 328 327 328 325 323 324 325 325 326 325 328 329 329 331 331 332 334 337 340 339 342 341 344
320 319 321 322 322 322 318 313 317 321 321 321 321 320 326 323 320 319 327 326 327 325 326 326 329 327 329 325 323 324 325 325 325 326 326 328 329 330 332 333 335 336 337 340 341 343 345
320 320 322 321 321 322 319 313 319 321 321 322 320 326 323 321 318 323 326 326 326 325 325 325 327 326 328 329 326 325 324 325 325 325 325 326 326 328 330 333 336 337 338 337 337 337 338
320 319 321 321 320 322 318 313 320 322 321 322 323 330 320 318 323 324 325 324 322 324 323 324 325 326 328 330 330 327 325 325 324 325 324 325 326 328 328 329 333 335 337 338 341 340 338
321 320 320 320 321 321 320 313 320 322 321 321 325 327 320 321 325 325 324 324 323 324 325 325 326 327 329 330 332 329 327 326 323 325 325 326 324 326 327 329 329 332 335 337 338 338 336
320 320 319 319 320 320 321 313 320 321 322 321 323 333 325 323 325 325 326 326 327 327 327 327 328 329 330 332 331 332 330 329 324 325 321 326 325 326 327 328 329 331 332 335 337 339 336
318 317 318 318 318 319 320 315 320 321 323 321 322 334 333 327 325 329 329 330 329 329 330 331 331 330 332 335 331 331 330 331 329 325 323 326 326 326 326 327 328 331 332 333 335 335 336
317 316 317 317 317 318 319 315 319 321 323 322 325 327 328 332 331 331 327 332 332 330 331 331 335 335 336 337 333 331 336 336 338 327 328 326 327 328 327 327 327 328 330 333 335 335 334
315 314 316 317 318 319 320 316 318 321 322 322 322 322 324 327 332 334 333 333 333 332 331 332 335 335 336 335 334 335 334 336 336 337 331 329 328 330 328 328 327 327 328 329 331 331 331
314 314 315 317 318 319 320 319 316 320 322 322 321 322 325 328 330 333 332 332 332 331 332 331 331 333 335 333 333 334 333 335 336 335 335 330 330 331 330 331 329 329 330 330 331 330 330
312 314 314 317 319 320 320 320 315 320 321 321 320 322 325 328 327 327 328 330 329 328 328 329 330 331 332 331 337 336 334 337 337 336 334 334 336 336 334 331 329 331 332 333 333 332 332
312 313 315 316 319 320 320 320 316 320 320 321 320 320 322 325 325 325 326 326 329 329 329 329 330 329 331 336 337 338 334 333 335 337 336 333 335 337 336 334 331 331 337 339 338 333 339
313 313 314 317 319 320 320 319 315 318 319 319 320 320 321 325 325 325 325 325 324 326 329 329 329 330 332 336 336 334 333 336 335 335 339 338 338 334 335 335 334 337 340 339 337 339 340
315 316 316 318 319 319 320 319 316 315 318 318 319 320 320 323 324 324 324 324 324 325 328 328 329 332 332 337 335 335 335 337 338 336 337 336 336 336 337 337 337 337 339 341 343 342 342
316 315 316 318 318 319 319 319 317 316 316 317 318 319 318 317 323 322 323 324 324 325 325 326 328 330 330 337 337 339 337 338 335 336 342 338 335 337 336 337 343 339 339 340 340 340 342

GFSGBSN_850_thetae_279.txt.gz
Theta_e
318 318 318 318 318 318 318 318 318 318 318 318 317 317 316 316 317 318 318 319 319 319 318 318 317 316 317 327 325 325 326 329 338 338 340 336 339 340 342 345 347 348 348 347 346 346 348
321 320 320 320 319 319 318 318 318 318 318 318 318 318 318 317 317 317 318 319 319 320 319 319 318 316 321 326 323 325 327 328 336 338 337 337 340 338 340 344 346 345 346 346 346 346 348
322 321 321 321 321 321 320 320 319 318 318 318 318 318 318 318 317 317 317 319 319 320 320 319 319 317 323 324 322 325 328 329 335 338 337 339 335 336 339 344 343 345 349 347 347 347 347
322 322 322 322 322 322 321 321 321 320 320 319 319 318 318 318 318 317 317 318 319 320 320 320 319 318 325 322 322 324 327 329 330 331 334 333 332 336 341 343 345 347 347 349 346 346 346
321 321 321 321 321 322 322 322 322 321 321 321 320 320 319 319 318 318 317 317 319 319 320 320 321 323 324 321 320 324 327 329 333 334 333 332 335 338 342 344 347 346 347 347 347 345 346
320 319 319 319 321 321 322 322 322 322 322 321 321 320 320 319 318 317 317 318 319 320 320 320 322 324 322 322 323 325 327 329 331 334 334 335 338 340 341 344 347 345 344 346 347 348 347
313 313 313 314 315 319 321 322 322 322 322 322 321 321 320 320 319 317 318 321 325 326 328 327 326 323 322 322 323 323 327 329 330 333 336 338 342 340 339 341 341 341 342 346 346 345 347
311 311 311 311 311 313 318 320 320 321 322 323 322 321 320 320 318 317 318 326 325 324 326 326 325 324 321 323 325 324 326 329 330 332 333 338 341 341 339 338 340 341 345 347 347 346 347
318 313 311 311 311 311 311 315 318 319 321 322 322 322 321 320 318 321 323 325 324 324 327 328 326 325 324 323 324 325 325 328 330 331 332 336 338 339 340 337 339 341 344 345 345 345 346
319 323 319 313 311 311 311 311 313 317 319 321 323 322 321 320 324 324 326 325 323 325 331 329 325 325 325 324 324 324 325 327 330 330 331 334 334 339 340 337 339 341 343 343 344 347 357
320 323 323 322 315 312 311 311 312 315 318 320 323 322 322 321 320 323 324 323 324 326 333 326 326 325 325 324 326 325 325 325 328 329 330 331 332 336 340 338 338 341 341 343 344 346 346
321 321 322 323 321 315 312 311 311 314 318 319 322 322 322 324 322 323 322 324 326 328 329 328 327 325 326 325 325 326 325 325 326 329 330 330 331 334 337 337 339 339 340 343 345 345 348
321 321 321 322 323 320 316 314 312 313 317 321 322 322 323 322 326 323 322 326 329 330 327 328 328 328 327 326 326 327 327 325 326 326 327 329 328 331 334 337 339 339 341 344 350 352 355
321 321 320 321 322 322 322 318 314 312 318 322 322 322 322 320 323 320 323 329 331 328 327 330 329 329 328 327 326 326 327 327 326 327 328 329 329 328 333 337 339 340 340 342 347 352 351
321 321 320 322 322 322 322 322 317 313 319 322 322 326 323 325 320 321 325 329 329 329 328 329 329 329 329 329 327 327 327 327 328 327 328 329 330 331 331 334 336 339 340 339 340 340 344
321 320 320 320 321 321 321 322 319 314 321 321 322 325 325 327 325 322 326 327 329 327 328 328 329 330 331 329 327 327 327 327 328 329 328 329 331 332 332 332 333 335 338 339 339 343 343
322 321 320 321 321 320 322 322 317 315 321 321 323 326 327 324 324 323 326 327 327 326 326 328 329 330 330 330 328 327 327 328 327 328 329 328 330 331 332 333 334 334 337 339 341 345 344
321 321 321 320 321 321 321 321 315 317 322 324 326 328 326 323 324 324 327 327 324 326 325 327 328 329 329 331 331 329 329 328 327 327 328 328 328 329 331 332 333 334 337 337 340 341 338
320 320 321 320 319 319 320 320 317 319 322 321 328 327 327 322 328 328 327 327 326 325 324 326 327 329 330 332 333 332 330 329 327 327 327 328 327 327 328 331 331 332 335 338 336 338 341
317 319 319 319 319 320 320 320 319 319 322 321 326 330 329 323 324 329 328 327 326 325 325 326 328 329 330 332 332 334 330 329 328 326 323 327 327 327 328 330 330 331 333 336 338 339 339
312 318 317 316 318 317 318 319 319 319 322 321 326 329 337 330 327 327 328 329 329 328 328 327 329 330 331 334 333 333 332 332 331 328 327 327 327 328 328 328 330 330 331 333 335 337 338
311 317 316 316 317 317 318 319 318 319 322 322 328 328 331 331 333 331 326 331 332 330 329 331 330 331 330 334 337 335 333 333 335 334 329 328 328 328 329 329 329 329 330 331 333 334 335
312 315 314 316 316 318 318 320 318 319 322 326 327 326 326 328 330 333 332 331 332 331 332 330 334 334 335 336 336 336 336 336 337 338 332 329 328 329 329 330 329 329 329 332 333 334 336
312 313 313 315 317 318 319 320 320 317 321 323 326 325 327 329 329 331 331 333 333 332 333 332 332 335 335 336 335 334 334 333 334 336 335 335 331 330 331 331 331 330 331 330 331 332 333
311 312 314 315 317 319 321 320 321 315 320 321 324 325 328 330 328 329 330 333 332 331 333 330 329 331 333 335 337 336 334 332 334 334 335 334 332 331 332 332 332 331 331 331 331 332 332
312 313 314 314 316 318 321 321 321 318 318 320 324 324 324 328 329 327 328 328 330 331 332 330 329 331 332 336 336 337 335 333 335 334 334 333 335 337 338 336 334 332 332 331 333 334 335
313 314 314 314 316 318 320 320 320 317 318 319 320 323 324 326 327 328 327 328 327 328 331 330 331 331 332 336 336 335 337 333 337 337 337 334 335 335 336 339 338 337 339 335 334 342 343
315 315 315 316 317 319 319 320 320 317 317 319 320 322 322 324 325 326 327 327 327 326 331 331 331 330 332 335 335 335 335 337 338 335 340 338 338 334 336 336 339 340 338 338 345 344 344
315 315 316 316 317 318 319 320 319 318 315 317 319 320 320 321 324 325 325 325 326 327 328 328 330 334 333 337 335 335 342 337 336 338 333 338 332 339 336 341 334 337 341 341 341 341 343

GFSGBSN_850_thetae_285.txt.gz
Theta_e
321 321 321 321 321 320 320 319 319 319 319 318 318 318 318 317 317 317 317 318 318 319 319 319 318 317 316 322 323 326 326 324 326 335 340 337 340 342 342 344 344 346 348 348 347 345 346
322 322 321 321 321 321 321 321 321 320 320 319 319 319 319 318 318 317 317 317 318 319 319 319 319 318 317 325 326 326 325 326 327 338 339 338 340 341 338 344 345 347 344 338 342 346 345
321 321 321 321 321 322 322 322 321 321 321 320 320 320 319 319 319 318 317 317 317 319 319 320 319 319 317 319 325 324 325 326 330 336 338 339 340 335 335 344 344 346 347 342 342 343 347
320 319 318 318 319 320 321 322 322 322 322 321 321 320 320 320 319 319 317 317 317 319 319 320 320 319 317 321 323 324 324 325 329 331 338 339 338 336 336 342 343 346 346 350 347 346 348
315 314 313 313 313 315 317 320 321 321 321 322 322 321 320 320 320 319 317 317 317 319 319 320 319 323 326 324 324 324 324 325 328 331 333 335 336 336 336 338 346 346 348 348 349 345 349
311 311 311 311 311 311 312 314 317 318 319 320 322 321 320 320 320 319 317 317 319 320 320 322 320 324 324 325 325 324 322 324 326 329 331 334 336 334 334 336 343 346 349 348 348 347 346
313 315 315 312 311 311 311 311 312 314 316 317 320 322 321 320 320 319 317 324 328 329 324 329 326 320 323 324 324 324 322 325 327 328 328 334 332 333 336 339 341 341 346 347 345 346 347
314 316 318 321 321 317 312 311 311 311 313 315 317 321 322 320 320 318 320 325 326 326 325 326 327 328 327 327 324 324 325 325 327 326 328 330 332 333 336 339 339 338 339 345 344 344 347
316 317 315 316 322 323 322 318 312 311 311 313 316 320 322 320 319 326 327 325 326 325 325 326 326 327 329 328 324 325 325 325 325 327 327 328 332 334 335 338 338 335 338 346 345 346 345
322 321 321 321 322 322 323 322 319 314 312 312 315 318 323 321 323 328 327 327 325 325 325 328 326 326 326 328 325 325 325 325 325 325 327 327 329 331 332 333 336 335 339 342 342 348 353
321 321 321 321 321 322 322 322 322 320 316 312 312 317 322 322 321 321 324 324 324 326 331 330 327 327 327 326 326 325 325 325 324 325 327 327 328 328 329 331 332 338 336 336 342 347 345
322 321 321 321 321 322 322 322 323 323 321 317 312 315 321 323 322 323 327 324 324 328 331 329 327 325 324 326 325 326 325 325 326 324 324 326 330 327 328 330 330 332 336 335 341 343 349
322 322 322 321 320 320 322 323 323 323 323 321 314 315 321 322 323 326 324 324 327 330 330 328 327 326 325 324 324 324 323 322 323 323 322 324 325 326 328 326 328 330 334 334 340 349 351
323 322 322 321 321 320 320 320 322 322 323 322 316 315 322 323 322 322 326 324 330 330 326 327 329 327 324 324 324 324 323 322 323 323 321 322 323 326 327 326 326 330 332 333 341 351 356
321 321 321 322 322 322 321 320 321 322 323 321 314 319 323 323 323 320 325 325 328 330 329 328 329 329 328 327 325 324 322 323 324 322 321 322 323 326 327 326 326 326 329 332 335 335 349
320 320 321 321 321 322 322 321 320 322 322 315 315 323 326 326 328 324 325 323 324 325 325 328 329 329 328 328 327 325 322 324 325 325 322 321 322 324 327 327 326 327 330 330 331 341 348
320 320 321 321 321 321 321 322 320 321 322 316 322 330 328 328 327 326 326 324 324 323 325 328 327 327 328 329 329 329 326 326 325 325 324 322 321 324 325 327 326 327 327 330 329 333 341
316 317 318 319 321 321 321 322 319 320 320 319 323 329 330 329 327 326 326 325 324 324 325 328 326 326 327 328 328 329 330 327 328 326 325 325 322 323 325 325 327 329 329 327 327 330 335
313 314 314 315 317 319 320 321 318 320 317 321 325 329 329 329 330 327 325 325 325 325 326 327 327 325 325 325 327 330 332 332 332 328 328 326 324 322 324 323 324 329 329 328 328 327 332
311 310 311 313 316 317 319 318 317 320 317 320 325 332 330 330 329 328 326 327 329 329 327 327 325 324 325 326 327 331 331 332 332 327 327 325 321 321 324 325 326 329 330 329 327 327 332
310 309 311 312 316 316 318 317 318 320 316 320 326 330 332 335 333 332 331 327 327 329 328 326 327 325 325 327 330 330 331 331 334 330 328 323 322 323 323 325 325 325 325 328 328 327 328
310 311 311 314 315 315 317 317 319 320 316 321 325 331 330 331 330 331 330 331 327 328 331 332 330 328 326 326 328 329 331 336 338 337 331 326 324 326 326 326 325 325 326 326 328 328 329
310 310 312 314 313 315 316 318 319 321 316 325 327 328 329 330 332 332 330 331 331 333 334 332 332 332 332 332 334 334 334 336 335 335 336 335 335 335 326 326 325 325 326 326 326 328 329
309 311 311 312 313 315 317 318 319 320 316 319 323 325 328 331 330 331 331 330 331 333 335 333 333 334 333 332 332 332 333 333 334 333 334 335 334 335 336 332 329 326 326 327 327 327 327
310 311 312 312 314 315 317 318 320 320 320 316 320 324 327 330 329 331 330 331 331 332 333 333 333 331 331 330 330 333 332 332 334 332 334 332 334 333 334 335 331 329 339 341 340 331 340
313 313 314 314 314 314 316 318 319 320 321 317 320 324 325 326 328 328 328 330 332 330 331 331 330 331 331 328 330 335 335 336 337 334 333 331 331 335 334 335 336 341 339 339 340 341 341
315 315 315 315 315 314 316 318 319 321 321 320 318 321 323 325 325 326 328 329 329 331 330 331 330 332 331 329 330 333 333 338 338 339 338 338 337 336 337 340 343 338 340 341 346 348 340
315 315 315 316 315 316 317 318 319 320 320 319 320 322 323 323 323 323 325 326 327 329 332 330 331 332 334 335 332 333 338 339 340 337 339 338 336 340 341 344 344 335 338 342 338 339 337
315 315 315 315 316 316 316 317 318 319 319 319 316 322 322 321 322 322 323 324 324 328 328 329 329 330 333 334 334 338 343 338 337 341 335 341 340 340 337 340 335 333 336 337 336 336 337

GFSGBSN_850_thetae_288.txt.gz
Theta_e
321 321 321 321 321 321 321 320 320 320 319 319 319 319 319 318 318 317 317 317 317 318 319 319 319 318 317 318 320 324 325 325 324 326 330 336 336 337 338 343 344 347 348 343 343 346 348
320 320 320 320 320 321 321 321 321 321 320 320 320 320 319 319 319 318 317 317 317 317 318 319 319 318 318 320 323 326 325 326 323 325 332 338 338 338 339 344 345 346 344 340 341 342 345
320 319 318 317 318 319 320 321 321 321 321 321 320 320 320 319 319 319 318 317 317 317 318 319 319 319 317 319 323 324 325 326 327 330 337 338 338 336 335 342 346 345 345 345 345 343 345
316 314 313 313 314 315 317 319 320 320 320 320 321 321 320 320 319 319 318 317 317 317 318 319 319 319 318 320 320 323 323 324 325 328 330 333 333 335 335 341 342 344 345 348 345 346 348
312 311 311 311 311 311 312 314 316 318 318 319 320 321 321 320 319 319 318 317 317 317 318 319 319 323 323 322 322 323 323 324 325 327 329 332 333 334 335 335 338 342 345 347 349 346 345
312 313 315 315 314 312 311 311 312 313 315 317 318 320 321 320 319 319 317 319 327 326 323 324 323 320 322 323 324 324 324 323 323 326 328 330 331 329 329 330 336 342 347 347 349 348 344
312 313 315 317 318 321 321 317 312 311 312 314 316 318 321 320 320 319 319 325 325 326 324 325 325 322 319 323 326 324 324 322 324 324 324 327 328 329 330 330 333 340 344 346 346 347 350
315 314 316 314 314 319 322 322 322 317 312 312 313 317 320 321 319 318 324 325 326 325 323 324 324 325 326 326 327 325 323 322 323 323 324 324 325 328 330 331 335 338 343 346 350 349 350
321 322 321 320 320 321 321 322 322 322 320 314 312 314 318 321 320 323 326 324 324 324 323 325 325 325 324 327 329 327 324 324 323 324 324 324 326 329 330 332 333 335 343 343 350 348 348
322 321 321 321 321 321 321 322 322 322 322 320 315 312 316 322 320 324 325 324 324 324 320 323 325 325 325 325 327 325 324 324 322 322 323 323 325 326 327 328 329 332 338 345 347 345 344
321 322 321 321 321 320 321 322 322 322 322 322 320 315 314 319 322 321 323 323 323 324 327 329 324 326 325 326 325 324 325 324 320 322 323 323 325 325 325 326 328 329 341 344 343 344 342
322 322 322 322 322 321 320 320 321 322 322 322 321 319 313 316 322 324 325 323 324 322 325 328 325 324 322 324 325 326 325 325 324 320 321 321 324 325 324 325 326 328 341 338 339 338 342
322 322 322 322 322 321 321 320 320 320 321 322 322 319 315 315 321 325 324 324 321 325 325 325 325 322 321 321 322 322 323 321 319 320 319 320 321 321 324 324 323 326 326 330 333 344 344
321 321 321 321 322 322 322 322 321 319 322 322 322 320 315 318 323 323 323 319 327 327 325 324 324 321 323 322 321 322 321 318 319 319 316 320 320 321 323 323 323 323 325 328 336 344 350
321 321 321 321 321 322 321 321 322 320 320 322 321 317 317 322 323 322 324 320 322 325 324 322 322 323 323 324 322 321 319 318 318 318 319 316 319 322 322 323 323 323 324 324 328 340 346
320 319 319 320 320 321 320 321 322 320 320 322 319 318 329 323 327 321 320 320 319 321 321 321 322 325 323 324 325 320 319 319 320 319 318 319 318 319 321 325 322 323 323 327 324 335 342
315 315 316 317 318 320 320 321 322 319 320 318 317 326 328 327 326 324 320 319 321 323 323 321 322 323 323 325 325 324 323 321 320 321 316 317 317 322 325 323 323 322 324 324 323 328 337
313 312 312 314 314 316 318 319 321 317 320 315 322 323 328 328 324 322 320 322 323 322 324 322 321 323 323 323 322 323 327 326 328 323 320 317 314 318 319 322 323 323 323 321 323 326 332
313 311 310 311 313 314 316 318 318 316 321 316 322 324 328 327 325 323 321 322 323 323 323 322 324 323 321 322 322 324 326 329 330 325 321 318 316 318 319 319 320 326 324 323 320 320 329
311 311 309 310 312 314 316 318 317 318 321 315 323 324 330 330 327 325 324 328 324 328 325 325 324 323 321 321 322 325 327 329 335 333 327 321 314 317 319 321 321 324 322 325 322 323 325
310 310 311 312 315 314 315 317 317 319 320 316 325 325 329 327 328 327 328 329 331 329 327 325 324 323 321 322 321 323 326 330 333 334 329 317 320 319 317 319 322 323 322 322 325 323 326
310 310 312 313 314 313 316 316 318 319 318 324 326 328 328 328 329 328 325 328 329 330 331 331 329 330 324 321 322 329 331 332 334 331 331 325 323 323 322 321 321 323 322 322 323 325 325
310 309 311 312 313 314 315 317 318 320 317 323 325 326 327 328 326 329 329 330 331 329 331 332 332 330 331 332 331 331 332 330 330 332 331 328 328 327 329 328 327 323 335 331 327 336 331
311 311 312 312 312 314 316 318 319 320 320 316 321 324 326 326 326 327 328 329 329 329 331 332 331 330 331 330 330 329 330 329 330 328 329 330 328 327 327 326 328 325 335 338 339 342 340
315 313 313 314 313 314 314 317 318 320 320 318 321 323 324 325 326 326 327 327 328 328 329 330 330 330 331 330 324 325 327 327 329 329 328 327 326 328 326 328 327 337 336 338 340 340 336
315 315 315 315 315 313 314 317 318 319 321 321 319 321 323 324 321 324 324 326 326 326 327 329 330 330 331 321 324 329 329 329 332 333 328 328 325 329 328 331 333 337 334 334 337 343 338
315 315 315 316 315 315 316 317 318 319 321 321 319 321 321 322 321 322 323 325 326 327 326 328 328 329 331 324 325 325 328 334 336 336 335 334 331 335 335 334 333 336 334 337 343 343 338
315 315 315 315 315 316 316 316 318 319 320 320 320 321 322 322 320 320 320 321 323 325 326 328 329 330 330 329 330 335 336 336 334 335 336 335 333 338 335 339 336 333 335 337 336 336 336
315 315 315 315 315 315 316 316 317 317 318 318 320 320 321 320 322 321 321 321 321 322 323 325 327 327 330 329 326 330 337 332 332 335 331 336 334 334 334 335 333 334 333 333 336 338 336

GFSGBSN_850_thetae_291.txt.gz
Theta_e
320 320 319 320 320 320 320 320 320 320 320 320 320 319 319 319 318 318 318 317 317 317 317 318 318 318 317 316 319 324 325 325 322 323 324 325 334 336 337 337 342 346 346 345 343 347 347
319 317 316 316 317 318 319 320 320 320 320 320 320 320 320 319 319 319 318 318 317 316 317 318 318 318 318 317 322 324 325 325 325 324 325 326 337 337 336 340 343 344 342 340 342 343 345
316 314 313 313 313 314 315 316 318 319 319 319 320 320 320 320 319 319 318 318 317 317 316 318 318 319 318 318 323 325 325 326 327 327 327 336 337 335 336 338 344 343 343 344 343 345 347
313 312 311 311 311 311 311 312 313 315 316 317 318 319 320 320 319 319 318 318 317 316 316 318 318 319 317 318 319 323 323 324 324 325 329 333 329 330 333 336 341 342 344 347 346 346 343
312 312 313 315 316 316 315 313 312 312 313 314 316 317 319 320 319 319 318 317 324 324 318 318 319 319 319 321 321 321 323 323 324 324 327 328 327 331 332 332 332 337 342 346 349 344 344
311 312 312 314 315 315 319 320 319 316 313 312 313 316 318 320 320 319 318 325 326 327 324 324 325 322 319 322 324 323 323 324 323 324 326 328 328 326 325 328 333 337 345 345 347 348 347
317 313 315 318 316 314 316 320 321 320 319 316 313 314 317 320 320 319 322 325 325 325 324 324 324 324 324 323 325 325 324 323 323 322 322 324 323 323 325 328 331 333 339 344 347 348 344
321 320 321 321 320 320 320 321 321 321 321 320 318 314 316 319 320 319 325 325 324 324 321 322 322 323 323 324 325 325 323 322 321 320 322 321 323 323 327 329 330 334 345 351 349 347 347
322 322 321 321 321 320 320 321 321 321 321 321 320 317 314 319 320 321 325 324 325 324 321 323 324 324 323 323 324 325 322 322 322 321 322 322 324 325 326 326 329 330 338 349 351 349 346
321 321 321 321 322 321 320 320 321 321 321 322 321 320 316 317 320 320 323 324 323 324 317 321 323 325 324 327 326 324 326 323 321 320 321 322 323 325 325 325 325 325 332 346 350 347 342
321 322 322 322 322 322 321 321 321 320 320 320 322 321 318 315 316 320 322 323 322 324 321 327 324 325 324 323 323 323 326 324 319 321 320 322 325 324 324 324 325 325 338 346 347 343 340
322 322 322 322 322 321 322 322 322 322 320 320 320 322 320 318 316 323 324 322 323 319 320 325 323 324 323 323 324 324 324 324 322 320 320 319 322 323 321 323 324 339 336 331 336 334 339
321 321 321 321 320 321 322 321 321 322 322 319 321 322 321 318 316 321 325 324 319 323 321 324 322 321 321 322 323 323 323 320 319 319 319 318 319 320 322 322 321 327 324 325 331 337 340
321 321 320 320 320 321 321 321 321 322 322 319 321 322 319 317 316 321 323 318 325 322 324 321 321 319 322 321 321 321 320 319 317 316 314 318 319 321 320 321 323 321 321 323 331 334 339
320 320 319 319 320 320 321 321 321 322 321 319 322 320 317 321 322 322 323 317 318 321 322 320 319 322 323 323 323 321 318 317 317 315 318 316 318 318 321 321 321 321 323 321 330 338 340
315 315 315 315 316 317 318 320 321 321 320 320 321 317 329 324 321 321 316 314 318 319 320 320 321 321 322 322 325 322 320 318 319 316 317 318 319 318 320 322 321 320 320 324 321 339 342
314 314 313 312 313 314 315 316 318 320 318 320 317 323 327 326 321 323 315 316 320 322 322 321 320 321 320 323 323 322 322 322 319 319 315 313 316 320 322 321 320 319 320 319 320 324 333
315 313 311 310 311 312 313 315 317 320 317 318 319 318 326 326 323 317 319 319 322 322 325 321 319 319 319 321 321 322 325 326 329 320 317 314 313 317 318 318 320 320 323 318 320 323 329
314 311 311 310 310 312 314 315 317 318 318 316 319 323 326 327 322 321 320 323 323 324 321 322 322 322 321 321 323 322 325 327 331 331 320 316 314 317 318 317 319 322 323 321 317 318 331
312 310 311 311 312 313 314 315 317 317 320 315 322 323 330 327 325 324 327 328 328 329 325 325 322 321 318 320 320 324 325 327 332 332 323 319 311 316 319 319 320 323 322 322 320 320 322
313 310 310 312 313 313 314 316 317 318 320 319 324 324 327 326 326 326 326 328 329 329 327 328 325 329 322 321 321 322 326 330 331 331 329 317 318 318 318 319 321 322 324 320 321 320 323
313 309 310 311 312 312 315 316 317 319 319 325 326 325 326 326 327 327 325 327 328 330 328 330 331 330 320 324 324 330 330 330 332 328 328 322 326 322 323 326 324 335 338 334 329 342 325
315 311 312 312 313 313 315 316 318 319 319 321 323 324 325 326 324 327 327 328 330 328 329 330 331 328 329 329 330 329 330 329 329 329 328 327 326 324 328 325 324 323 338 339 337 339 340
316 314 313 314 314 314 314 317 318 319 320 316 320 323 324 324 324 326 325 326 327 327 328 329 329 328 329 329 328 327 326 326 327 326 325 326 326 323 326 324 329 324 333 337 340 337 336
316 316 315 316 315 314 313 316 317 318 320 319 321 321 322 321 323 323 324 324 325 326 327 328 329 329 330 326 323 324 324 326 328 328 326 323 324 326 328 325 325 334 333 334 338 341 337
316 316 316 316 316 315 314 316 318 318 320 321 319 320 320 321 318 323 322 322 323 324 325 328 329 330 331 320 325 326 327 328 331 332 326 325 321 326 325 330 331 332 334 333 333 341 338
315 316 315 315 315 316 315 316 317 318 319 320 319 320 320 321 319 320 322 322 324 324 323 325 326 328 329 322 324 324 325 332 334 335 334 330 327 333 333 333 331 332 333 334 341 341 336
315 315 315 315 315 315 316 316 316 317 318 319 320 320 321 321 320 321 321 321 320 321 324 326 326 327 327 328 329 330 334 332 332 333 334 331 330 335 332 336 334 331 332 333 333 335 337
315 315 315 315 315 314 314 316 316 316 317 317 318 318 319 318 320 321 320 320 320 320 323 322 324 324 327 326 325 327 334 329 328 334 329 333 329 332 331 330 328 333 331 333 333 335 336